Fuerteventura, Spain

7:00 PM WET on December 15, 2018 (GMT +0000)
Fuerteventura

Weather History for GCFV - October, 2018

Change the Weather History Date:

Friday, October 12, 2018

  Actual Average Record
Temperature  
Mean Temperature 74 °F -  
Max Temperature 79 °F 75 °F 87 °F (2007)
Min Temperature 70 °F 65 °F 66 °F (1996)
Cooling Degree Days 10    
Growing Degree Days 24 (Base 50)    
Moisture  
Dew Point 67 °F    
Average Humidity 75    
Maximum Humidity 83    
Minimum Humidity 58    
Precipitation  
Precipitation 0.00 in - - ()
Sea Level Pressure  
Sea Level Pressure 30.08 in    
Wind  
Wind Speed 7 mph ()    
Max Wind Speed 12 mph    
Max Gust Speed -    
Visibility 7.2 miles    
Events      
Averages and records for this station are not official NWS values.
T = Trace of Precipitation, MM = Missing Value Source: Averaged Metar Reports

Daily Weather History Graph

Daily Weather History Graph

Search for Another Location

Airport or City:

Astronomy

Oct. 12, 2018 Rise Set
Actual Time 7:54 AM WEST 7:29 PM WEST
Civil Twilight 7:30 AM WEST 7:52 PM WEST
Nautical Twilight 7:03 AM WEST 8:20 PM WEST
Astronomical Twilight 6:35 AM WEST 8:47 PM WEST
Moon 11:03 AM WEST (10/12) 10:10 PM WEST (10/12)
Length of Visible Light 12h 22m
Length of Day
11h 34m
Waxing Crescent, 13% of the Moon is Illuminated
Oct 12
Waxing Crescent
Oct 16
First Quarter
Oct 24
Full
Oct 31
Last Quarter
Nov 7
New

Hourly Weather History & Observations

Time (WEST) Temp. Dew Point Humidity Pressure Visibility Wind Dir Wind Speed Gust Speed Precip Events Conditions
12:00 AM 75.2 °F 66.2 °F 73% 30.09 in 6.2 mi North 4.6 mph - N/A   Partly Cloudy
12:30 AM 73.4 °F 66.2 °F 78% 30.09 in 6.2 mi NNW 4.6 mph - N/A   Unknown
1:00 AM 73 °F 66 °F 72% 30.10 in 19 mi NNW 6.9 mph - -  
1:00 AM 73.4 °F 66.2 °F 78% 30.09 in 6.2 mi NNW 5.8 mph - N/A   Partly Cloudy
1:30 AM 73.4 °F 66.2 °F 78% 30.09 in 6.2 mi NNW 4.6 mph - N/A   Partly Cloudy
2:00 AM 73.4 °F 66.2 °F 78% 30.09 in 6.2 mi North 6.9 mph - N/A   Partly Cloudy
2:30 AM 73.4 °F 68.0 °F 83% 30.09 in 6.2 mi North 5.8 mph - N/A   Scattered Clouds
3:00 AM 73.4 °F 66.2 °F 78% 30.09 in 6.2 mi North 5.8 mph - N/A   Scattered Clouds
4:00 AM 72 °F 66 °F 76% 30.07 in 19 mi NNW 5.8 mph - -  
4:00 AM 71.6 °F 66.2 °F 83% 30.06 in 6.2 mi NNW 5.8 mph - N/A   Mostly Cloudy
4:30 AM 71.6 °F 66.2 °F 83% 30.06 in 6.2 mi NNW 5.8 mph - N/A   Mostly Cloudy
5:00 AM 71.6 °F 66.2 °F 83% 30.06 in 6.2 mi NNW 6.9 mph - N/A   Mostly Cloudy
5:30 AM 71.6 °F 66.2 °F 83% 30.06 in 6.2 mi North 6.9 mph - N/A   Partly Cloudy
6:00 AM 71.6 °F 66.2 °F 83% 30.06 in 6.2 mi NNE 6.9 mph - N/A   Partly Cloudy
7:00 AM 70 °F 64 °F 77% 30.08 in 6 mi NNW 8.1 mph - -   Scattered Clouds
7:00 AM 71.6 °F 64.4 °F 78% 30.06 in 6.2 mi North 6.9 mph - N/A   Partly Cloudy
7:30 AM 71.6 °F 66.2 °F 83% 30.09 in 6.2 mi NNW 8.1 mph - N/A   Scattered Clouds
8:00 AM 71.6 °F 64.4 °F 78% 30.09 in 6.2 mi NNW 6.9 mph - N/A   Scattered Clouds
8:30 AM 71.6 °F 66.2 °F 83% 30.09 in 6.2 mi NNW 8.1 mph - N/A   Scattered Clouds
9:00 AM 73.4 °F 66.2 °F 78% 30.09 in 6.2 mi North 8.1 mph - N/A   Partly Cloudy
9:30 AM 75.2 °F 68.0 °F 78% 30.12 in 6.2 mi NNE 10.4 mph - N/A   Partly Cloudy
10:00 AM 76 °F 66 °F 65% 30.12 in 12 mi NNE 10.4 mph - -   Scattered Clouds
10:00 AM 75.2 °F 66.2 °F 73% 30.12 in 6.2 mi NNE 10.4 mph - N/A   Partly Cloudy
10:30 AM 75.2 °F 66.2 °F 73% 30.12 in 6.2 mi NE 10.4 mph - N/A   Partly Cloudy
11:00 AM 77.0 °F 66.2 °F 69% 30.12 in 6.2 mi NE 11.5 mph - N/A   Partly Cloudy
11:30 AM 77.0 °F 66.2 °F 69% 30.12 in 6.2 mi NE 10.4 mph - N/A   Partly Cloudy
12:00 PM 77.0 °F 68.0 °F 74% 30.12 in 6.2 mi NE 10.4 mph - N/A   Partly Cloudy
12:30 PM 77.0 °F 68.0 °F 74% 30.12 in 6.2 mi NE 9.2 mph - N/A   Partly Cloudy
1:00 PM 79 °F 67 °F 58% 30.12 in 12 mi ENE 10.4 mph - -   Scattered Clouds
1:00 PM 78.8 °F 68.0 °F 69% 30.12 in 6.2 mi ENE 9.2 mph - N/A   Partly Cloudy
1:30 PM 77.0 °F 66.2 °F 69% 30.09 in 6.2 mi ENE 10.4 mph - N/A   Partly Cloudy
2:00 PM 78.8 °F 66.2 °F 65% 30.09 in 6.2 mi ENE 9.2 mph - N/A   Partly Cloudy
3:00 PM 78.8 °F 66.2 °F 65% 30.06 in 6.2 mi ENE 9.2 mph - N/A   Partly Cloudy
3:30 PM 77.0 °F 66.2 °F 69% 30.06 in 6.2 mi ENE 6.9 mph - N/A   Partly Cloudy
4:00 PM 78 °F 67 °F 62% 30.06 in 31 mi NE 5.8 mph - -   Scattered Clouds
4:00 PM 77.0 °F 68.0 °F 74% 30.06 in 6.2 mi NE 5.8 mph - N/A   Partly Cloudy
4:30 PM 77.0 °F 66.2 °F 69% 30.04 in 6.2 mi NE 6.9 mph - N/A   Partly Cloudy
5:00 PM 77.0 °F 68.0 °F 74% 30.04 in 6.2 mi NE 8.1 mph - N/A   Partly Cloudy
5:30 PM 77.0 °F 68.0 °F 74% 30.06 in - ENE 6.9 mph - N/A   Clear
6:30 PM 77.0 °F 68.0 °F 74% 30.04 in 6.2 mi ENE 6.9 mph - N/A   Partly Cloudy
7:00 PM 76 °F 67 °F 68% 30.05 in 25 mi ENE 8.1 mph - -   Scattered Clouds
7:00 PM 75.2 °F 68.0 °F 78% 30.04 in 6.2 mi ENE 8.1 mph - N/A   Partly Cloudy
8:00 PM 75.2 °F 68.0 °F 78% 30.04 in 6.2 mi ENE 6.9 mph - N/A   Partly Cloudy
8:30 PM 75.2 °F 68.0 °F 78% 30.04 in 6.2 mi ENE 8.1 mph - N/A   Partly Cloudy
9:00 PM 75.2 °F 68.0 °F 78% 30.06 in 6.2 mi NE 6.9 mph - N/A   Partly Cloudy
9:30 PM 75.2 °F 68.0 °F 78% 30.06 in 6.2 mi NNE 5.8 mph - N/A   Partly Cloudy
10:00 PM 75 °F 68 °F 74% 30.08 in 19 mi ENE 9.2 mph - -   Scattered Clouds
10:00 PM 75.2 °F 68.0 °F 78% 30.06 in 6.2 mi ENE 9.2 mph - N/A   Scattered Clouds
10:30 PM 75.2 °F 68.0 °F 78% 30.06 in 6.2 mi NE 9.2 mph - N/A   Mostly Cloudy
11:00 PM 75.2 °F 68.0 °F 78% 30.06 in 6.2 mi NE 8.1 mph - N/A   Mostly Cloudy
11:30 PM 75.2 °F 68.0 °F 78% 30.06 in 6.2 mi NE 5.8 mph - N/A   Mostly Cloudy